When you browse on this site, cookies collect data to enhance your experience and personalize the content and advertising you see.
Visit our Privacy Policy to learn more. By continuing to use the site, you agree to this use of cookies and data.
  • In Hungary
  • List of Countries
  • For 7 days
  • Water Temperature
  • Satellite Maps
  • Weather Map
  • News
  • Weather Widgets
  • user-avatar
    Login

    Hourly Weather Kisangani

    Today, 23 January, Wednesday

    Time Temperature Precipitation Wind Pressure Humidity
    00:00 +25°C° 0 mm 0 mps 717 mmHg 56%
    01:00 +24°C° 0 mm 0 mps 717 mmHg 57%
    02:00 +23°C° 0 mm 0 mps 717 mmHg 61%
    03:00 +23°C° 0 mm 0 mps 717 mmHg 63%
    04:00 +23°C° 0 mm 0 mps 717 mmHg 65%
    05:00 +22°C° 0 mm 0 mps 717 mmHg 66%
    06:00 +23°C° 0 mm 0 mps 717 mmHg 65%
    07:00 +24°C° 0 mm 0 mps 718 mmHg 64%
    08:00 +28°C° 0 mm 1 mps 718 mmHg 62%
    09:00 +30°C° 0 mm 1 mps 718 mmHg 55%
    10:00 +33°C° 0 mm 1 mps 718 mmHg 47%
    11:00 +35°C° 0 mm 1 mps 718 mmHg 40%
    12:00 +37°C° 0 mm 1 mps 718 mmHg 34%
    13:00 +40°C° 0 mm 1 mps 717 mmHg 29%
    14:00 +37°C° 0 mm 1 mps 718 mmHg 36%
    15:00 +36°C° 0 mm 1 mps 717 mmHg 39%
    16:00 +33°C° 0 mm 0 mps 716 mmHg 42%
    17:00 +31°C° 0 mm 0 mps 716 mmHg 45%
    18:00 +30°C° 0 mm 0 mps 716 mmHg 49%
    19:00 +28°C° 0 mm 0 mps 716 mmHg 52%
    20:00 +27°C° 0 mm 0 mps 717 mmHg 56%
    21:00 +28°C° 0 mm 1 mps 717 mmHg 59%
    22:00 +28°C° 0 mm 1 mps 717 mmHg 62%
    23:00 +27°C° 0 mm 1 mps 718 mmHg 65%

    Tomorrow, 24 January, Thursday

    Time Temperature Precipitation Wind Pressure Humidity
    00:00 +27°C° 0 mm 1 mps 718 mmHg 68%
    01:00 +26°C° 0 mm 1 mps 717 mmHg 70%
    02:00 +26°C° 0 mm 1 mps 717 mmHg 73%
    03:00 +25°C° 0 mm 1 mps 717 mmHg 77%
    04:00 +25°C° 0 mm 1 mps 717 mmHg 81%
    05:00 +24°C° 0 mm 1 mps 717 mmHg 84%
    06:00 +25°C° 0 mm 1 mps 718 mmHg 81%
    07:00 +26°C° 0 mm 1 mps 718 mmHg 78%
    08:00 +27°C° 0 mm 1 mps 719 mmHg 75%
    09:00 +29°C° 0 mm 1 mps 719 mmHg 65%
    10:00 +32°C° 0 mm 1 mps 719 mmHg 54%
    11:00 +36°C° 0 mm 2 mps 719 mmHg 44%
    12:00 +37°C° 0 mm 1 mps 718 mmHg 38%
    13:00 +37°C° 0 mm 0 mps 718 mmHg 31%
    14:00 +40°C° 0 mm 0 mps 717 mmHg 25%
    15:00 +38°C° 0 mm 0 mps 716 mmHg 28%
    16:00 +36°C° 0 mm 0 mps 715 mmHg 32%
    17:00 +34°C° 0 mm 0 mps 715 mmHg 35%
    18:00 +32°C° 0 mm 0 mps 715 mmHg 39%
    19:00 +30°C° 0 mm 0 mps 715 mmHg 43%
    20:00 +28°C° 0 mm 0 mps 716 mmHg 47%
    21:00 +27°C° 0 mm 0 mps 716 mmHg 49%
    22:00 +29°C° 0 mm 1 mps 716 mmHg 51%
    23:00 +28°C° 0 mm 1 mps 716 mmHg 52%

    Day after tomorrow, 25 January, Friday

    Time Temperature Precipitation Wind Pressure Humidity
    00:00 +28°C° 0 mm 1 mps 716 mmHg 54%
    01:00 +27°C° 0 mm 1 mps 716 mmHg 56%
    02:00 +27°C° 0 mm 1 mps 715 mmHg 57%
    03:00 +26°C° 0 mm 1 mps 715 mmHg 60%
    04:00 +26°C° 0 mm 1 mps 716 mmHg 62%
    05:00 +25°C° 0 mm 1 mps 716 mmHg 64%
    06:00 +26°C° 0 mm 1 mps 716 mmHg 64%
    07:00 +27°C° 0 mm 1 mps 717 mmHg 64%
    08:00 +27°C° 0 mm 1 mps 718 mmHg 64%
    09:00 +30°C° 0 mm 1 mps 718 mmHg 57%
    10:00 +33°C° 0 mm 1 mps 719 mmHg 49%
    11:00 +36°C° 0 mm 2 mps 719 mmHg 42%
    12:00 +39°C° 0 mm 1 mps 718 mmHg 37%
    13:00 +41°C° 0 mm 1 mps 717 mmHg 32%
    14:00 +40°C° 0 mm 0 mps 717 mmHg 26%
    15:00 +38°C° 0 mm 0 mps 716 mmHg 32%
    16:00 +35°C° 0 mm 0 mps 715 mmHg 37%
    17:00 +33°C° 0 mm 0 mps 714 mmHg 42%
    18:00 +31°C° 0 mm 0 mps 715 mmHg 46%
    19:00 +30°C° 0 mm 0 mps 715 mmHg 49%
    20:00 +28°C° 0 mm 0 mps 716 mmHg 52%
    21:00 +27°C° 0 mm 0 mps 716 mmHg 54%
    22:00 +27°C° 0 mm 0 mps 716 mmHg 56%
    23:00 +26°C° 0 mm 0 mps 716 mmHg 58%

    26 January, Saturday

    Time Temperature Precipitation Wind Pressure Humidity
    00:00 +26°C° 0 mm 0 mps 716 mmHg 59%
    01:00 +28°C° 0 mm 1 mps 716 mmHg 60%
    02:00 +27°C° 0 mm 1 mps 715 mmHg 62%
    03:00 +27°C° 0 mm 1 mps 715 mmHg 64%
    04:00 +26°C° 0 mm 1 mps 715 mmHg 67%
    05:00 +26°C° 0 mm 1 mps 715 mmHg 69%
    06:00 +27°C° 0 mm 1 mps 716 mmHg 70%
    07:00 +27°C° 0 mm 1 mps 717 mmHg 70%
    08:00 +28°C° 0 mm 1 mps 718 mmHg 71%
    09:00 +30°C° 0 mm 1 mps 718 mmHg 61%
    10:00 +33°C° 0 mm 1 mps 719 mmHg 52%
    11:00 +36°C° 0 mm 1 mps 719 mmHg 43%
    12:00 +37°C° 0 mm 1 mps 718 mmHg 40%
    13:00 +37°C° 0 mm 0 mps 718 mmHg 36%
    14:00 +38°C° 0 mm 0 mps 717 mmHg 32%
    15:00 +37°C° 0 mm 0 mps 716 mmHg 34%
    16:00 +39°C° 0 mm 1 mps 715 mmHg 36%
    17:00 +36°C° 0 mm 1 mps 715 mmHg 38%
    18:00 +34°C° 0 mm 1 mps 715 mmHg 45%
    19:00 +32°C° 0 mm 1 mps 715 mmHg 51%
    20:00 +28°C° 0 mm 0 mps 716 mmHg 58%
    21:00 +29°C° 0.2 mm 1 mps 716 mmHg 63%
    22:00 +28°C° 0.2 mm 1 mps 716 mmHg 68%
    23:00 +28°C° 0.2 mm 1 mps 717 mmHg 73%

    27 January, Sunday

    Time Temperature Precipitation Wind Pressure Humidity
    00:00 +27°C° 0.3 mm 1 mps 717 mmHg 79%
    01:00 +26°C° 0.3 mm 1 mps 716 mmHg 85%
    02:00 +25°C° 0.3 mm 1 mps 716 mmHg 92%
    03:00 +25°C° 0 mm 1 mps 716 mmHg 92%
    04:00 +25°C° 0 mm 1 mps 716 mmHg 92%
    05:00 +25°C° 0 mm 1 mps 716 mmHg 92%
    06:00 +25°C° 0 mm 1 mps 717 mmHg 89%
    07:00 +26°C° 0 mm 1 mps 718 mmHg 86%
    08:00 +27°C° 0 mm 2 mps 718 mmHg 83%
    09:00 +29°C° 0 mm 2 mps 718 mmHg 70%
    10:00 +32°C° 0 mm 2 mps 719 mmHg 57%
    11:00 +36°C° 0 mm 2 mps 719 mmHg 44%
    12:00 +37°C° 0 mm 2 mps 718 mmHg 40%
    13:00 +39°C° 0 mm 1 mps 717 mmHg 35%
    14:00 +40°C° 0 mm 1 mps 716 mmHg 30%
    15:00 +39°C° 0 mm 1 mps 715 mmHg 35%
    16:00 +36°C° 0 mm 1 mps 715 mmHg 39%
    17:00 +35°C° 0 mm 1 mps 714 mmHg 44%
    18:00 +33°C° 0.1 mm 1 mps 715 mmHg 51%
    19:00 +31°C° 0.1 mm 1 mps 715 mmHg 58%
    20:00 +27°C° 0.1 mm 0 mps 716 mmHg 65%
    21:00 +26°C° 0.3 mm 0 mps 716 mmHg 70%
    22:00 +25°C° 0.3 mm 0 mps 716 mmHg 74%
    23:00 +27°C° 0.3 mm 1 mps 716 mmHg 78%

    28 January, Monday

    Time Temperature Precipitation Wind Pressure Humidity
    00:00 +26°C° 0 mm 1 mps 716 mmHg 79%
    01:00 +26°C° 0 mm 1 mps 716 mmHg 81%
    02:00 +26°C° 0 mm 1 mps 716 mmHg 82%
    03:00 +25°C° 0.2 mm 1 mps 716 mmHg 84%
    04:00 +25°C° 0.2 mm 1 mps 716 mmHg 86%
    05:00 +24°C° 0.2 mm 1 mps 716 mmHg 89%
    06:00 +25°C° 0.2 mm 1 mps 717 mmHg 87%
    07:00 +25°C° 0.2 mm 1 mps 717 mmHg 85%
    08:00 +26°C° 0.2 mm 1 mps 718 mmHg 83%
    09:00 +29°C° 0 mm 1 mps 718 mmHg 71%
    10:00 +32°C° 0 mm 1 mps 718 mmHg 59%
    11:00 +36°C° 0 mm 2 mps 719 mmHg 47%
    12:00 +36°C° 0 mm 1 mps 718 mmHg 43%
    13:00 +37°C° 0 mm 1 mps 717 mmHg 39%
    14:00 +39°C° 0 mm 1 mps 716 mmHg 35%
    15:00 +37°C° 0 mm 1 mps 715 mmHg 37%
    16:00 +35°C° 0 mm 0 mps 715 mmHg 39%
    17:00 +34°C° 0 mm 0 mps 714 mmHg 41%
    18:00 +32°C° 0 mm 0 mps 715 mmHg 47%
    19:00 +30°C° 0 mm 0 mps 715 mmHg 52%
    20:00 +28°C° 0 mm 0 mps 715 mmHg 58%
    21:00 +27°C° 0.2 mm 0 mps 715 mmHg 64%
    22:00 +28°C° 0.2 mm 1 mps 716 mmHg 71%
    23:00 +27°C° 0.2 mm 1 mps 716 mmHg 77%
    Show more